Location: Dehesa de la Cepeda
(40.6574°N, 4.3013°W)
Time: 21:01:03
(UTC+00:00)

Vanguard 2 Rocket - Pass Details

Date: 04 August 2021
Orbit: 556 x 3324 km, 32.9° (Epoch: 19 September)

Event Time Altitude Azimuth Distance (km) Brightness Sun altitude
Rises 05:01:07 0° 213° (SSW) 3,959 9.6 -3.6°
Reaches altitude 10° 05:06:00 10° 187° (S) 2,476 8.8 -2.7°
Maximum altitude 05:08:15 12° 162° (SSE) 2,099 8.7 -2.3°
Drops below altitude 10° 05:10:14 10° 137° (SE) 2,105 9.1 -2.0°
Sets 05:13:37 0° 105° (ESE) 2,809 10.3 -1.4°
